owner,sensor,date,latitude,longitude,vertical_datum,sea_water_practical_salinity,qcFlag 
DISL,ioos:station:DISL:PPTA:1,2015-05-01T00:00:00Z,30.2791,-87.5561,1.155,10.95,1111122 
DISL,ioos:station:DISL:PPTA:1,2015-05-01T00:30:00Z,30.2791,-87.5561,1.157,11.35,1111122 
DISL,ioos:station:DISL:PPTA:1,2015-05-01T01:00:00Z,30.2791,-87.5561,1.152,11.16,1111122 
DISL,ioos:station:DISL:PPTA:1,2015-05-01T01:30:00Z,30.2791,-87.5561,1.149,12.83,1111122 
DISL,ioos:station:DISL:PPTA:1,2015-05-01T02:00:00Z,30.2791,-87.5561,1.155,11.23,1111122 
DISL,ioos:station:DISL:PPTA:1,2015-05-01T02:30:00Z,30.2791,-87.5561,1.145,10.55,1111122 
DISL,ioos:station:DISL:PPTA:1,2015-05-01T03:00:00Z,30.2791,-87.5561,1.15,12.65,1111122 
DISL,ioos:station:DISL:PPTA:1,2015-05-01T03:30:00Z,30.2791,-87.5561,1.162,11.9,1111122 
DISL,ioos:station:DISL:PPTA:1,2015-05-01T04:00:00Z,30.2791,-87.5561,1.157,12.83,1111122 
DISL,ioos:station:DISL:PPTA:1,2015-05-01T04:30:00Z,30.2791,-87.5561,1.152,11.99,1111122 
DISL,ioos:station:DISL:PPTA:1,2015-05-01T05:00:00Z,30.2791,-87.5561,1.15,12.09,1111122 
DISL,ioos:station:DISL:PPTA:1,2015-05-01T05:30:00Z,30.2791,-87.5561,1.14,12.3,1111122 
DISL,ioos:station:DISL:PPTA:1,2015-05-01T06:00:00Z,30.2791,-87.5561,1.15,11.88,1111122 
DISL,ioos:station:DISL:PPTA:1,2015-05-01T06:30:00Z,30.2791,-87.5561,1.141,12.2,1111122 
DISL,ioos:station:DISL:PPTA:1,2015-05-01T07:00:00Z,30.2791,-87.5561,1.142,12.39,1111122 
DISL,ioos:station:DISL:PPTA:1,2015-05-01T07:30:00Z,30.2791,-87.5561,1.16,12.68,1111122 
DISL,ioos:station:DISL:PPTA:1,2015-05-01T08:00:00Z,30.2791,-87.5561,1.151,12.01,1111122 
DISL,ioos:station:DISL:PPTA:1,2015-05-01T08:30:00Z,30.2791,-87.5561,1.163,13.16,1111122 
DISL,ioos:station:DISL:PPTA:1,2015-05-01T09:00:00Z,30.2791,-87.5561,1.171,13.21,1111122 
DISL,ioos:station:DISL:PPTA:1,2015-05-01T09:30:00Z,30.2791,-87.5561,1.174,16.51,1111122 
DISL,ioos:station:DISL:PPTA:1,2015-05-01T10:00:00Z,30.2791,-87.5561,1.172,31.42,1111122 
DISL,ioos:station:DISL:PPTA:1,2015-05-01T10:30:00Z,30.2791,-87.5561,1.19,32.87,1111122 
DISL,ioos:station:DISL:PPTA:1,2015-05-01T11:00:00Z,30.2791,-87.5561,1.197,33.23,1111122 
DISL,ioos:station:DISL:PPTA:1,2015-05-01T11:30:00Z,30.2791,-87.5561,1.21,33.44,1111122 
DISL,ioos:station:DISL:PPTA:1,2015-05-01T12:00:00Z,30.2791,-87.5561,1.216,33.51,1111122 
DISL,ioos:station:DISL:PPTA:1,2015-05-01T12:30:00Z,30.2791,-87.5561,1.218,33.55,1111122 
DISL,ioos:station:DISL:PPTA:1,2015-05-01T13:00:00Z,30.2791,-87.5561,1.229,33.59,1111122 
DISL,ioos:station:DISL:PPTA:1,2015-05-01T13:30:00Z,30.2791,-87.5561,1.231,33.61,1111122 
DISL,ioos:station:DISL:PPTA:1,2015-05-01T14:00:00Z,30.2791,-87.5561,1.239,33.29,1111122 
DISL,ioos:station:DISL:PPTA:1,2015-05-01T14:30:00Z,30.2791,-87.5561,1.243,33.03,1111122 
DISL,ioos:station:DISL:PPTA:1,2015-05-01T15:00:00Z,30.2791,-87.5561,1.247,33.3,1111122 
DISL,ioos:station:DISL:PPTA:1,2015-05-01T15:30:00Z,30.2791,-87.5561,1.242,31.04,1111122 
DISL,ioos:station:DISL:PPTA:1,2015-05-01T16:00:00Z,30.2791,-87.5561,1.242,13.29,1111122 
DISL,ioos:station:DISL:PPTA:1,2015-05-01T16:30:00Z,30.2791,-87.5561,1.227,14.96,1111122 
DISL,ioos:station:DISL:PPTA:1,2015-05-01T17:00:00Z,30.2791,-87.5561,1.224,15.55,1111122 
DISL,ioos:station:DISL:PPTA:1,2015-05-01T17:30:00Z,30.2791,-87.5561,1.206,14.79,1111122 
DISL,ioos:station:DISL:PPTA:1,2015-05-01T18:00:00Z,30.2791,-87.5561,1.205,13.64,1111122 
DISL,ioos:station:DISL:PPTA:1,2015-05-01T18:30:00Z,30.2791,-87.5561,1.186,15.49,1111122 
DISL,ioos:station:DISL:PPTA:1,2015-05-01T19:00:00Z,30.2791,-87.5561,1.17,15.08,1111122 
DISL,ioos:station:DISL:PPTA:1,2015-05-01T19:30:00Z,30.2791,-87.5561,1.168,16.46,1111122 
DISL,ioos:station:DISL:PPTA:1,2015-05-01T20:00:00Z,30.2791,-87.5561,1.17,15.13,1111122 
DISL,ioos:station:DISL:PPTA:1,2015-05-01T20:30:00Z,30.2791,-87.5561,1.154,14.87,1111122 
DISL,ioos:station:DISL:PPTA:1,2015-05-01T21:00:00Z,30.2791,-87.5561,1.151,15.25,1111122 
DISL,ioos:station:DISL:PPTA:1,2015-05-01T21:30:00Z,30.2791,-87.5561,1.131,16.33,1111122 
DISL,ioos:station:DISL:PPTA:1,2015-05-01T22:00:00Z,30.2791,-87.5561,1.131,14.77,1111122 
DISL,ioos:station:DISL:PPTA:1,2015-05-01T22:30:00Z,30.2791,-87.5561,1.132,12.98,1111122 
DISL,ioos:station:DISL:PPTA:1,2015-05-01T23:00:00Z,30.2791,-87.5561,1.138,14.75,1111122 
DISL,ioos:station:DISL:PPTA:1,2015-05-01T23:30:00Z,30.2791,-87.5561,1.14,14.2,1111122 
DISL,ioos:station:DISL:PPTA:1,2015-05-02T00:00:00Z,30.2791,-87.5561,1.126,15.21,1111122 
DISL,ioos:station:DISL:PPTA:1,2015-05-02T00:30:00Z,30.2791,-87.5561,1.129,13.84,1111122 
DISL,ioos:station:DISL:PPTA:1,2015-05-02T01:00:00Z,30.2791,-87.5561,1.123,12.5,1111122 
DISL,ioos:station:DISL:PPTA:1,2015-05-02T01:30:00Z,30.2791,-87.5561,1.115,18.31,1111122 
DISL,ioos:station:DISL:PPTA:1,2015-05-02T02:00:00Z,30.2791,-87.5561,1.12,11.36,1111122 
DISL,ioos:station:DISL:PPTA:1,2015-05-02T02:30:00Z,30.2791,-87.5561,1.124,10.87,1111122 
DISL,ioos:station:DISL:PPTA:1,2015-05-02T03:00:00Z,30.2791,-87.5561,1.128,10.54,1111122 
DISL,ioos:station:DISL:PPTA:1,2015-05-02T03:30:00Z,30.2791,-87.5561,1.121,11.75,1111122 
DISL,ioos:station:DISL:PPTA:1,2015-05-02T04:00:00Z,30.2791,-87.5561,1.126,10.45,1111122 
DISL,ioos:station:DISL:PPTA:1,2015-05-02T04:30:00Z,30.2791,-87.5561,1.122,10.92,1111122 
DISL,ioos:station:DISL:PPTA:1,2015-05-02T05:00:00Z,30.2791,-87.5561,1.123,10.49,1111122 
DISL,ioos:station:DISL:PPTA:1,2015-05-02T05:30:00Z,30.2791,-87.5561,1.116,10.42,1111122 
DISL,ioos:station:DISL:PPTA:1,2015-05-02T06:00:00Z,30.2791,-87.5561,1.111,10.56,1111122 
DISL,ioos:station:DISL:PPTA:1,2015-05-02T06:30:00Z,30.2791,-87.5561,1.114,10.76,1111122 
DISL,ioos:station:DISL:PPTA:1,2015-05-02T07:00:00Z,30.2791,-87.5561,1.118,10.85,1111122 
DISL,ioos:station:DISL:PPTA:1,2015-05-02T07:30:00Z,30.2791,-87.5561,1.124,10.62,1111122 
DISL,ioos:station:DISL:PPTA:1,2015-05-02T08:00:00Z,30.2791,-87.5561,1.129,14.07,1111122 
DISL,ioos:station:DISL:PPTA:1,2015-05-02T08:30:00Z,30.2791,-87.5561,1.133,28.69,1111122 
DISL,ioos:station:DISL:PPTA:1,2015-05-02T09:00:00Z,30.2791,-87.5561,1.149,33.26,1111122 
DISL,ioos:station:DISL:PPTA:1,2015-05-02T09:30:00Z,30.2791,-87.5561,1.161,33.47,1111122 
DISL,ioos:station:DISL:PPTA:1,2015-05-02T10:00:00Z,30.2791,-87.5561,1.173,33.63,1111122 
DISL,ioos:station:DISL:PPTA:1,2015-05-02T10:30:00Z,30.2791,-87.5561,1.189,33.64,1111122 
DISL,ioos:station:DISL:PPTA:1,2015-05-02T11:00:00Z,30.2791,-87.5561,1.199,33.59,1111122 
DISL,ioos:station:DISL:PPTA:1,2015-05-02T11:30:00Z,30.2791,-87.5561,1.21,33.51,1111122 
DISL,ioos:station:DISL:PPTA:1,2015-05-02T12:00:00Z,30.2791,-87.5561,1.224,33.7,1111122 
DISL,ioos:station:DISL:PPTA:1,2015-05-02T12:30:00Z,30.2791,-87.5561,1.229,33.77,1111122 
DISL,ioos:station:DISL:PPTA:1,2015-05-02T13:00:00Z,30.2791,-87.5561,1.242,33.88,1111122 
DISL,ioos:station:DISL:PPTA:1,2015-05-02T13:30:00Z,30.2791,-87.5561,1.255,33.94,1111122 
DISL,ioos:station:DISL:PPTA:1,2015-05-02T14:00:00Z,30.2791,-87.5561,1.258,33.99,1111122 
DISL,ioos:station:DISL:PPTA:1,2015-05-02T14:30:00Z,30.2791,-87.5561,1.256,34.04,1111122 
DISL,ioos:station:DISL:PPTA:1,2015-05-02T15:00:00Z,30.2791,-87.5561,1.26,34.04,1111122 
DISL,ioos:station:DISL:PPTA:1,2015-05-02T15:30:00Z,30.2791,-87.5561,1.254,34.05,1111122 
DISL,ioos:station:DISL:PPTA:1,2015-05-02T16:00:00Z,30.2791,-87.5561,1.252,34.0,1111122 
DISL,ioos:station:DISL:PPTA:1,2015-05-02T16:30:00Z,30.2791,-87.5561,1.229,34.0,1111122 
DISL,ioos:station:DISL:PPTA:1,2015-05-02T17:00:00Z,30.2791,-87.5561,1.22,33.83,1111122 
DISL,ioos:station:DISL:PPTA:1,2015-05-02T17:30:00Z,30.2791,-87.5561,1.209,33.29,1111122 
DISL,ioos:station:DISL:PPTA:1,2015-05-02T18:00:00Z,30.2791,-87.5561,1.198,29.19,1111122 
DISL,ioos:station:DISL:PPTA:1,2015-05-02T18:30:00Z,30.2791,-87.5561,1.17,29.04,1111122 
DISL,ioos:station:DISL:PPTA:1,2015-05-02T19:00:00Z,30.2791,-87.5561,1.15,28.86,1111122 
DISL,ioos:station:DISL:PPTA:1,2015-05-02T19:30:00Z,30.2791,-87.5561,1.151,22.86,1111122 
DISL,ioos:station:DISL:PPTA:1,2015-05-02T20:00:00Z,30.2791,-87.5561,1.146,21.23,1111122 
DISL,ioos:station:DISL:PPTA:1,2015-05-02T20:30:00Z,30.2791,-87.5561,1.128,21.66,1111122 
DISL,ioos:station:DISL:PPTA:1,2015-05-02T21:00:00Z,30.2791,-87.5561,1.124,23.32,1111122 
DISL,ioos:station:DISL:PPTA:1,2015-05-02T21:30:00Z,30.2791,-87.5561,1.107,24.04,1111122 
DISL,ioos:station:DISL:PPTA:1,2015-05-02T22:00:00Z,30.2791,-87.5561,1.102,21.46,1111122 
DISL,ioos:station:DISL:PPTA:1,2015-05-02T22:30:00Z,30.2791,-87.5561,1.106,21.64,1111122 
DISL,ioos:station:DISL:PPTA:1,2015-05-02T23:00:00Z,30.2791,-87.5561,1.104,20.57,1111122 
DISL,ioos:station:DISL:PPTA:1,2015-05-02T23:30:00Z,30.2791,-87.5561,1.106,19.81,1111122 
DISL,ioos:station:DISL:PPTA:1,2015-05-03T00:00:00Z,30.2791,-87.5561,1.103,20.98,1111122 
DISL,ioos:station:DISL:PPTA:1,2015-05-03T00:30:00Z,30.2791,-87.5561,1.104,18.29,1111122 
DISL,ioos:station:DISL:PPTA:1,2015-05-03T01:00:00Z,30.2791,-87.5561,1.097,17.75,1111122 
DISL,ioos:station:DISL:PPTA:1,2015-05-03T01:30:00Z,30.2791,-87.5561,1.105,17.15,1111122 
DISL,ioos:station:DISL:PPTA:1,2015-05-03T02:00:00Z,30.2791,-87.5561,1.11,17.95,1111122 
DISL,ioos:station:DISL:PPTA:1,2015-05-03T02:30:00Z,30.2791,-87.5561,1.108,17.23,1111122 
DISL,ioos:station:DISL:PPTA:1,2015-05-03T03:00:00Z,30.2791,-87.5561,1.118,17.02,1111122 
DISL,ioos:station:DISL:PPTA:1,2015-05-03T03:30:00Z,30.2791,-87.5561,1.125,16.01,1111122 
DISL,ioos:station:DISL:PPTA:1,2015-05-03T04:00:00Z,30.2791,-87.5561,1.124,15.82,1111122 
DISL,ioos:station:DISL:PPTA:1,2015-05-03T04:30:00Z,30.2791,-87.5561,1.125,17.33,1111122 
DISL,ioos:station:DISL:PPTA:1,2015-05-03T05:00:00Z,30.2791,-87.5561,1.123,22.12,1111122 
DISL,ioos:station:DISL:PPTA:1,2015-05-03T05:30:00Z,30.2791,-87.5561,1.12,27.84,1111122 
DISL,ioos:station:DISL:PPTA:1,2015-05-03T06:00:00Z,30.2791,-87.5561,1.123,29.39,1111122 
DISL,ioos:station:DISL:PPTA:1,2015-05-03T06:30:00Z,30.2791,-87.5561,1.123,30.84,1111122 
DISL,ioos:station:DISL:PPTA:1,2015-05-03T07:00:00Z,30.2791,-87.5561,1.132,31.06,1111122 
DISL,ioos:station:DISL:PPTA:1,2015-05-03T07:30:00Z,30.2791,-87.5561,1.141,31.02,1111122 
DISL,ioos:station:DISL:PPTA:1,2015-05-03T08:00:00Z,30.2791,-87.5561,1.162,31.46,1111122 
DISL,ioos:station:DISL:PPTA:1,2015-05-03T08:30:00Z,30.2791,-87.5561,1.179,31.63,1111122 
DISL,ioos:station:DISL:PPTA:1,2015-05-03T09:00:00Z,30.2791,-87.5561,1.196,31.7,1111122 
DISL,ioos:station:DISL:PPTA:1,2015-05-03T09:30:00Z,30.2791,-87.5561,1.209,31.41,1111122 
DISL,ioos:station:DISL:PPTA:1,2015-05-03T10:00:00Z,30.2791,-87.5561,1.225,31.22,1111122 
DISL,ioos:station:DISL:PPTA:1,2015-05-03T10:30:00Z,30.2791,-87.5561,1.246,30.99,1111122 
DISL,ioos:station:DISL:PPTA:1,2015-05-03T11:00:00Z,30.2791,-87.5561,1.262,30.85,1111122 
DISL,ioos:station:DISL:PPTA:1,2015-05-03T11:30:00Z,30.2791,-87.5561,1.278,30.95,1111122 
DISL,ioos:station:DISL:PPTA:1,2015-05-03T12:00:00Z,30.2791,-87.5561,1.295,30.86,1111122 
DISL,ioos:station:DISL:PPTA:1,2015-05-03T12:30:00Z,30.2791,-87.5561,1.307,30.94,1111122 
DISL,ioos:station:DISL:PPTA:1,2015-05-03T13:00:00Z,30.2791,-87.5561,1.323,31.2,1111122 
DISL,ioos:station:DISL:PPTA:1,2015-05-03T13:30:00Z,30.2791,-87.5561,1.327,31.97,1111122 
DISL,ioos:station:DISL:PPTA:1,2015-05-03T14:00:00Z,30.2791,-87.5561,1.337,31.67,1111122 
DISL,ioos:station:DISL:PPTA:1,2015-05-03T14:30:00Z,30.2791,-87.5561,1.342,31.93,1111122 
DISL,ioos:station:DISL:PPTA:1,2015-05-03T15:00:00Z,30.2791,-87.5561,1.33,32.02,1111122 
DISL,ioos:station:DISL:PPTA:1,2015-05-03T15:30:00Z,30.2791,-87.5561,1.33,32.1,1111122 
DISL,ioos:station:DISL:PPTA:1,2015-05-03T16:00:00Z,30.2791,-87.5561,1.327,31.9,1111122 
DISL,ioos:station:DISL:PPTA:1,2015-05-03T16:30:00Z,30.2791,-87.5561,1.322,32.04,1111122 
DISL,ioos:station:DISL:PPTA:1,2015-05-03T17:00:00Z,30.2791,-87.5561,1.318,32.15,1111122 
DISL,ioos:station:DISL:PPTA:1,2015-05-03T17:30:00Z,30.2791,-87.5561,1.305,31.37,1111122 
DISL,ioos:station:DISL:PPTA:1,2015-05-03T18:00:00Z,30.2791,-87.5561,1.274,31.85,1111122 
DISL,ioos:station:DISL:PPTA:1,2015-05-03T18:30:00Z,30.2791,-87.5561,1.264,30.0,1111122 
DISL,ioos:station:DISL:PPTA:1,2015-05-03T19:00:00Z,30.2791,-87.5561,1.244,29.52,1111122 
DISL,ioos:station:DISL:PPTA:1,2015-05-03T19:30:00Z,30.2791,-87.5561,1.226,27.9,1111122 
DISL,ioos:station:DISL:PPTA:1,2015-05-03T20:00:00Z,30.2791,-87.5561,1.211,24.75,1111122 
DISL,ioos:station:DISL:PPTA:1,2015-05-03T20:30:00Z,30.2791,-87.5561,1.197,23.05,1111122 
DISL,ioos:station:DISL:PPTA:1,2015-05-03T21:00:00Z,30.2791,-87.5561,1.192,24.68,1111122 
DISL,ioos:station:DISL:PPTA:1,2015-05-03T21:30:00Z,30.2791,-87.5561,1.17,22.19,1111122 
DISL,ioos:station:DISL:PPTA:1,2015-05-03T22:00:00Z,30.2791,-87.5561,1.158,21.16,1111122 
DISL,ioos:station:DISL:PPTA:1,2015-05-03T22:30:00Z,30.2791,-87.5561,1.16,19.45,1111122 
DISL,ioos:station:DISL:PPTA:1,2015-05-03T23:00:00Z,30.2791,-87.5561,1.159,18.43,1111122 
DISL,ioos:station:DISL:PPTA:1,2015-05-03T23:30:00Z,30.2791,-87.5561,1.154,18.15,1111122 
DISL,ioos:station:DISL:PPTA:1,2015-05-04T00:00:00Z,30.2791,-87.5561,1.158,17.04,1111122 
DISL,ioos:station:DISL:PPTA:1,2015-05-04T00:30:00Z,30.2791,-87.5561,1.155,16.95,1111122 
DISL,ioos:station:DISL:PPTA:1,2015-05-04T01:00:00Z,30.2791,-87.5561,1.154,17.56,1111122 
DISL,ioos:station:DISL:PPTA:1,2015-05-04T01:30:00Z,30.2791,-87.5561,1.155,16.28,1111122 
DISL,ioos:station:DISL:PPTA:1,2015-05-04T02:00:00Z,30.2791,-87.5561,1.157,18.79,1111122 
DISL,ioos:station:DISL:PPTA:1,2015-05-04T02:30:00Z,30.2791,-87.5561,1.164,19.09,1111122 
DISL,ioos:station:DISL:PPTA:1,2015-05-04T03:00:00Z,30.2791,-87.5561,1.174,18.09,1111122 
DISL,ioos:station:DISL:PPTA:1,2015-05-04T03:30:00Z,30.2791,-87.5561,1.177,15.75,1111122 
DISL,ioos:station:DISL:PPTA:1,2015-05-04T04:00:00Z,30.2791,-87.5561,1.179,14.31,1111122 
DISL,ioos:station:DISL:PPTA:1,2015-05-04T04:30:00Z,30.2791,-87.5561,1.178,16.47,1111122 
DISL,ioos:station:DISL:PPTA:1,2015-05-04T05:00:00Z,30.2791,-87.5561,1.174,18.56,1111122 
DISL,ioos:station:DISL:PPTA:1,2015-05-04T05:30:00Z,30.2791,-87.5561,1.177,23.29,1111122 
DISL,ioos:station:DISL:PPTA:1,2015-05-04T06:00:00Z,30.2791,-87.5561,1.175,27.11,1111122 
DISL,ioos:station:DISL:PPTA:1,2015-05-04T06:30:00Z,30.2791,-87.5561,1.188,27.96,1111122 
DISL,ioos:station:DISL:PPTA:1,2015-05-04T07:00:00Z,30.2791,-87.5561,1.192,28.54,1111122 
DISL,ioos:station:DISL:PPTA:1,2015-05-04T07:30:00Z,30.2791,-87.5561,1.203,28.78,1111122 
DISL,ioos:station:DISL:PPTA:1,2015-05-04T08:00:00Z,30.2791,-87.5561,1.212,29.42,1111122 
DISL,ioos:station:DISL:PPTA:1,2015-05-04T08:30:00Z,30.2791,-87.5561,1.209,29.84,1111122 
DISL,ioos:station:DISL:PPTA:1,2015-05-04T09:00:00Z,30.2791,-87.5561,1.237,30.1,1111122 
DISL,ioos:station:DISL:PPTA:1,2015-05-04T09:30:00Z,30.2791,-87.5561,1.256,30.28,1111122 
DISL,ioos:station:DISL:PPTA:1,2015-05-04T10:00:00Z,30.2791,-87.5561,1.275,30.37,1111122 
DISL,ioos:station:DISL:PPTA:1,2015-05-04T10:30:00Z,30.2791,-87.5561,1.274,30.29,1111122 
DISL,ioos:station:DISL:PPTA:1,2015-05-04T11:00:00Z,30.2791,-87.5561,1.311,30.48,1111122 
DISL,ioos:station:DISL:PPTA:1,2015-05-04T11:30:00Z,30.2791,-87.5561,1.346,30.6,1111122 
DISL,ioos:station:DISL:PPTA:1,2015-05-04T12:00:00Z,30.2791,-87.5561,1.367,30.5,1111122 
DISL,ioos:station:DISL:PPTA:1,2015-05-04T12:30:00Z,30.2791,-87.5561,1.404,30.02,1111122 
DISL,ioos:station:DISL:PPTA:1,2015-05-04T13:00:00Z,30.2791,-87.5561,1.393,29.85,1111122 
DISL,ioos:station:DISL:PPTA:1,2015-05-04T13:30:00Z,30.2791,-87.5561,1.409,29.93,1111122 
DISL,ioos:station:DISL:PPTA:1,2015-05-04T14:00:00Z,30.2791,-87.5561,1.407,29.42,1111122 
DISL,ioos:station:DISL:PPTA:1,2015-05-04T14:30:00Z,30.2791,-87.5561,1.427,28.83,1111122 
DISL,ioos:station:DISL:PPTA:1,2015-05-04T15:00:00Z,30.2791,-87.5561,1.435,28.69,1111122 
DISL,ioos:station:DISL:PPTA:1,2015-05-04T15:30:00Z,30.2791,-87.5561,1.438,28.55,1111122 
DISL,ioos:station:DISL:PPTA:1,2015-05-04T16:00:00Z,30.2791,-87.5561,1.449,28.71,1111122 
DISL,ioos:station:DISL:PPTA:1,2015-05-04T16:30:00Z,30.2791,-87.5561,1.434,28.89,1111122 
DISL,ioos:station:DISL:PPTA:1,2015-05-04T17:00:00Z,30.2791,-87.5561,1.415,29.34,1111122 
DISL,ioos:station:DISL:PPTA:1,2015-05-04T17:30:00Z,30.2791,-87.5561,1.415,29.15,1111122 
DISL,ioos:station:DISL:PPTA:1,2015-05-04T18:00:00Z,30.2791,-87.5561,1.401,29.04,1111122 
DISL,ioos:station:DISL:PPTA:1,2015-05-04T18:30:00Z,30.2791,-87.5561,1.392,28.55,1111122 
DISL,ioos:station:DISL:PPTA:1,2015-05-04T19:00:00Z,30.2791,-87.5561,1.365,28.38,1111122 
DISL,ioos:station:DISL:PPTA:1,2015-05-04T19:30:00Z,30.2791,-87.5561,1.342,26.1,1111122 
DISL,ioos:station:DISL:PPTA:1,2015-05-04T20:00:00Z,30.2791,-87.5561,1.321,25.23,1111122 
DISL,ioos:station:DISL:PPTA:1,2015-05-04T20:30:00Z,30.2791,-87.5561,1.296,25.76,1111122 
DISL,ioos:station:DISL:PPTA:1,2015-05-04T21:00:00Z,30.2791,-87.5561,1.272,26.93,1111122 
DISL,ioos:station:DISL:PPTA:1,2015-05-04T21:30:00Z,30.2791,-87.5561,1.262,26.86,1111122 
DISL,ioos:station:DISL:PPTA:1,2015-05-04T22:00:00Z,30.2791,-87.5561,1.241,25.38,1111122 
DISL,ioos:station:DISL:PPTA:1,2015-05-04T22:30:00Z,30.2791,-87.5561,1.22,25.29,1111122 
DISL,ioos:station:DISL:PPTA:1,2015-05-04T23:00:00Z,30.2791,-87.5561,1.225,24.28,1111122 
DISL,ioos:station:DISL:PPTA:1,2015-05-04T23:30:00Z,30.2791,-87.5561,1.221,24.23,1111122 
DISL,ioos:station:DISL:PPTA:1,2015-05-05T00:00:00Z,30.2791,-87.5561,1.218,23.7,1111122 
DISL,ioos:station:DISL:PPTA:1,2015-05-05T00:30:00Z,30.2791,-87.5561,1.21,21.75,1111122 
DISL,ioos:station:DISL:PPTA:1,2015-05-05T01:00:00Z,30.2791,-87.5561,1.194,24.04,1111122 
DISL,ioos:station:DISL:PPTA:1,2015-05-05T01:30:00Z,30.2791,-87.5561,1.205,23.13,1111122 
DISL,ioos:station:DISL:PPTA:1,2015-05-05T02:00:00Z,30.2791,-87.5561,1.198,22.19,1111122 
DISL,ioos:station:DISL:PPTA:1,2015-05-05T02:30:00Z,30.2791,-87.5561,1.183,21.48,1111122 
DISL,ioos:station:DISL:PPTA:1,2015-05-05T03:00:00Z,30.2791,-87.5561,1.196,17.04,1111122 
DISL,ioos:station:DISL:PPTA:1,2015-05-05T03:30:00Z,30.2791,-87.5561,1.186,19.21,1111122 
DISL,ioos:station:DISL:PPTA:1,2015-05-05T04:00:00Z,30.2791,-87.5561,1.177,18.0,1111122 
DISL,ioos:station:DISL:PPTA:1,2015-05-05T04:30:00Z,30.2791,-87.5561,1.18,16.96,1111122 
DISL,ioos:station:DISL:PPTA:1,2015-05-05T05:00:00Z,30.2791,-87.5561,1.191,17.68,1111122 
DISL,ioos:station:DISL:PPTA:1,2015-05-05T05:30:00Z,30.2791,-87.5561,1.21,18.45,1111122 
DISL,ioos:station:DISL:PPTA:1,2015-05-05T06:00:00Z,30.2791,-87.5561,1.218,18.47,1111122 
DISL,ioos:station:DISL:PPTA:1,2015-05-05T06:30:00Z,30.2791,-87.5561,1.21,16.81,1111122 
DISL,ioos:station:DISL:PPTA:1,2015-05-05T07:00:00Z,30.2791,-87.5561,1.219,20.74,1111122 
DISL,ioos:station:DISL:PPTA:1,2015-05-05T07:30:00Z,30.2791,-87.5561,1.205,22.15,1111122 
DISL,ioos:station:DISL:PPTA:1,2015-05-05T08:00:00Z,30.2791,-87.5561,1.221,26.46,1111122 
DISL,ioos:station:DISL:PPTA:1,2015-05-05T08:30:00Z,30.2791,-87.5561,1.22,27.95,1111122 
DISL,ioos:station:DISL:PPTA:1,2015-05-05T09:00:00Z,30.2791,-87.5561,1.235,28.7,1111122 
DISL,ioos:station:DISL:PPTA:1,2015-05-05T09:30:00Z,30.2791,-87.5561,1.247,29.45,1111122 
DISL,ioos:station:DISL:PPTA:1,2015-05-05T10:00:00Z,30.2791,-87.5561,1.274,30.16,1111122 
DISL,ioos:station:DISL:PPTA:1,2015-05-05T10:30:00Z,30.2791,-87.5561,1.28,30.37,1111122 
DISL,ioos:station:DISL:PPTA:1,2015-05-05T11:00:00Z,30.2791,-87.5561,1.311,30.84,1111122 
DISL,ioos:station:DISL:PPTA:1,2015-05-05T11:30:00Z,30.2791,-87.5561,1.329,30.97,1111122 
DISL,ioos:station:DISL:PPTA:1,2015-05-05T12:00:00Z,30.2791,-87.5561,1.368,30.52,1111122 
DISL,ioos:station:DISL:PPTA:1,2015-05-05T12:30:00Z,30.2791,-87.5561,1.393,30.79,1111122 
DISL,ioos:station:DISL:PPTA:1,2015-05-05T13:00:00Z,30.2791,-87.5561,1.413,30.63,1111122 
DISL,ioos:station:DISL:PPTA:1,2015-05-05T13:30:00Z,30.2791,-87.5561,1.417,30.46,1111122 
DISL,ioos:station:DISL:PPTA:1,2015-05-05T14:00:00Z,30.2791,-87.5561,1.454,30.08,1111122 
DISL,ioos:station:DISL:PPTA:1,2015-05-05T14:30:00Z,30.2791,-87.5561,1.446,29.32,1111122 
DISL,ioos:station:DISL:PPTA:1,2015-05-05T15:00:00Z,30.2791,-87.5561,1.452,29.05,1111122 
DISL,ioos:station:DISL:PPTA:1,2015-05-05T15:30:00Z,30.2791,-87.5561,1.463,28.79,1111122 
DISL,ioos:station:DISL:PPTA:1,2015-05-05T16:00:00Z,30.2791,-87.5561,1.482,28.95,1111122 
DISL,ioos:station:DISL:PPTA:1,2015-05-05T16:30:00Z,30.2791,-87.5561,1.466,28.56,1111122 
DISL,ioos:station:DISL:PPTA:1,2015-05-05T17:00:00Z,30.2791,-87.5561,1.487,28.47,1111122 
DISL,ioos:station:DISL:PPTA:1,2015-05-05T17:30:00Z,30.2791,-87.5561,1.489,28.34,1111122 
DISL,ioos:station:DISL:PPTA:1,2015-05-05T18:00:00Z,30.2791,-87.5561,1.479,28.65,1111122 
DISL,ioos:station:DISL:PPTA:1,2015-05-05T18:30:00Z,30.2791,-87.5561,1.462,28.31,1111122 
DISL,ioos:station:DISL:PPTA:1,2015-05-05T19:00:00Z,30.2791,-87.5561,1.416,28.6,1111122 
DISL,ioos:station:DISL:PPTA:1,2015-05-05T19:30:00Z,30.2791,-87.5561,1.408,28.24,1111122 
DISL,ioos:station:DISL:PPTA:1,2015-05-05T20:00:00Z,30.2791,-87.5561,1.392,28.02,1111122 
DISL,ioos:station:DISL:PPTA:1,2015-05-05T20:30:00Z,30.2791,-87.5561,1.362,28.33,1111122 
DISL,ioos:station:DISL:PPTA:1,2015-05-05T21:00:00Z,30.2791,-87.5561,1.35,26.66,1111122 
DISL,ioos:station:DISL:PPTA:1,2015-05-05T21:30:00Z,30.2791,-87.5561,1.315,28.02,1111122 
DISL,ioos:station:DISL:PPTA:1,2015-05-05T22:00:00Z,30.2791,-87.5561,1.316,27.37,1111122 
DISL,ioos:station:DISL:PPTA:1,2015-05-05T22:30:00Z,30.2791,-87.5561,1.303,26.73,1111122 
DISL,ioos:station:DISL:PPTA:1,2015-05-05T23:00:00Z,30.2791,-87.5561,1.287,25.32,1111122 
DISL,ioos:station:DISL:PPTA:1,2015-05-05T23:30:00Z,30.2791,-87.5561,1.272,24.81,1111122 
DISL,ioos:station:DISL:PPTA:1,2015-05-06T00:00:00Z,30.2791,-87.5561,1.26,24.89,1111122 
DISL,ioos:station:DISL:PPTA:1,2015-05-06T00:30:00Z,30.2791,-87.5561,1.255,24.6,1111122 
DISL,ioos:station:DISL:PPTA:1,2015-05-06T01:00:00Z,30.2791,-87.5561,1.244,24.01,1111122 
DISL,ioos:station:DISL:PPTA:1,2015-05-06T01:30:00Z,30.2791,-87.5561,1.242,23.49,1111122 
DISL,ioos:station:DISL:PPTA:1,2015-05-06T02:00:00Z,30.2791,-87.5561,1.23,22.73,1111122 
DISL,ioos:station:DISL:PPTA:1,2015-05-06T02:30:00Z,30.2791,-87.5561,1.227,22.15,1111122 
DISL,ioos:station:DISL:PPTA:1,2015-05-06T03:00:00Z,30.2791,-87.5561,1.208,21.03,1111122 
DISL,ioos:station:DISL:PPTA:1,2015-05-06T03:30:00Z,30.2791,-87.5561,1.201,20.88,1111122 
DISL,ioos:station:DISL:PPTA:1,2015-05-06T04:00:00Z,30.2791,-87.5561,1.216,17.44,1111122 
DISL,ioos:station:DISL:PPTA:1,2015-05-06T04:30:00Z,30.2791,-87.5561,1.226,17.09,1111122 
DISL,ioos:station:DISL:PPTA:1,2015-05-06T05:00:00Z,30.2791,-87.5561,1.237,17.66,1111122 
DISL,ioos:station:DISL:PPTA:1,2015-05-06T05:30:00Z,30.2791,-87.5561,1.245,15.82,1111122 
DISL,ioos:station:DISL:PPTA:1,2015-05-06T06:00:00Z,30.2791,-87.5561,1.248,18.29,1111122 
DISL,ioos:station:DISL:PPTA:1,2015-05-06T06:30:00Z,30.2791,-87.5561,1.245,17.76,1111122 
DISL,ioos:station:DISL:PPTA:1,2015-05-06T07:00:00Z,30.2791,-87.5561,1.24,16.52,1111122 
DISL,ioos:station:DISL:PPTA:1,2015-05-06T07:30:00Z,30.2791,-87.5561,1.234,17.37,1111122 
DISL,ioos:station:DISL:PPTA:1,2015-05-06T08:00:00Z,30.2791,-87.5561,1.251,20.88,1111122 
DISL,ioos:station:DISL:PPTA:1,2015-05-06T08:30:00Z,30.2791,-87.5561,1.253,24.98,1111122 
DISL,ioos:station:DISL:PPTA:1,2015-05-06T09:00:00Z,30.2791,-87.5561,1.268,28.12,1111122 
DISL,ioos:station:DISL:PPTA:1,2015-05-06T09:30:00Z,30.2791,-87.5561,1.263,28.59,1111122 
DISL,ioos:station:DISL:PPTA:1,2015-05-06T10:00:00Z,30.2791,-87.5561,1.293,29.74,1111122 
DISL,ioos:station:DISL:PPTA:1,2015-05-06T10:30:00Z,30.2791,-87.5561,1.306,30.06,1111122 
DISL,ioos:station:DISL:PPTA:1,2015-05-06T11:00:00Z,30.2791,-87.5561,1.347,30.07,1111122 
DISL,ioos:station:DISL:PPTA:1,2015-05-06T11:30:00Z,30.2791,-87.5561,1.375,30.14,1111122 
DISL,ioos:station:DISL:PPTA:1,2015-05-06T12:00:00Z,30.2791,-87.5561,1.387,30.3,1111122 
DISL,ioos:station:DISL:PPTA:1,2015-05-06T12:30:00Z,30.2791,-87.5561,1.415,30.28,1111122 
DISL,ioos:station:DISL:PPTA:1,2015-05-06T13:00:00Z,30.2791,-87.5561,1.437,30.33,1111122 
DISL,ioos:station:DISL:PPTA:1,2015-05-06T13:30:00Z,30.2791,-87.5561,1.456,29.75,1111122 
DISL,ioos:station:DISL:PPTA:1,2015-05-06T14:00:00Z,30.2791,-87.5561,1.477,29.88,1111122 